TIANTONG-1 1 (41725 NORAD) Tracking and Keplerian Element Data

This shows tracking and keplerian element data for the satellite.

Feedback or suggestion? Click here.




ElementValue
Catalog41725
NameTIANTONG-1 1
Epoch Orbit2738
Epoch Day12.85327116
Epoch Year2024
RAAN24.087
Inclination2.4612
Eccentricity0.0007501
Argument of Perigee306.8496
Mean Anonmoly189.4306
Mean Motion1.00275421
Decay Rate-3.1E-06
L11 41725U 16048A 24012.85327116 -.00000310 00000+0 00000+0 0 9993
L22 41725 2.4612 24.0870 0007501 306.8496 189.4306 1.00275421 27389



Live tracking and technical data element details for TIANTONG-1 1 (NORAD 41725). TIANTONG-1 1 can be tracked NOW for your location showing map with azimuth and elevation plus other details from your city location.







IsCatalogInMostPopularTable: catalog: 41725, numindb: 1190
Update: records affected: 1



GetName: 41725 TIANTONG-1 1

Hit Count: updated at: Sat, 20 Apr 2024 22:29:25 GMT